Flag for Canada Weather past 2 weeks in Montreal, Quebec, Canada

Now
28 °F

Passing clouds.


Feels Like: 19 °F
Forecast: 28 / 52 °F
Wind: 10 mph from Southwest

Location: Montreal - Pierre Elliot Trudeau International Aiport

Current Time: Apr 2, 2015 at 2:49:13 AM

Latest Report: Apr 2, 2015 at 2:00 AM


Visibility: 15 mi

Pressure: 30.12 "Hg

Humidity: 55%

Dew point: 14 °F

Location of MontrealLocation

Historic Weather in Montreal — Graph

°F

Montreal temperature yesterday

Maximum temperature yesterday: 36 °F (at 5:00 PM)
Minimum temperature yesterday: 21 °F (at 5:00 AM)
Average temperature yesterday: 28 °F

Past Weeks' High & Low Weather Summary

 TemperatureHumidityPressure
High45 °F (Mar 25, 5:00 PM)100% (Mar 21, 4:00 PM)30.42 "Hg (Mar 21, 4:00 PM)
Low3 °F (Mar 23, 7:00 AM)27% (Mar 31, 4:00 PM)29.51 "Hg (Mar 30, 2:00 PM)
Average26 °F58%30.03 "Hg
* Reported Mar 18 1:00 AM — Apr 2 1:00 AM, Montreal, Weather by CustomWeather, © 2015

Note: Actual official high and low records may vary slightly from our data, if they occured in-between our weather recording intervals... More about our weather records

Advertising

Montreal weather history for previous 24 hours

 ConditionsComfort  
Time TempWeatherWind HumidityBarometerVisibility
1:00 AM
Thu, Apr 2
30 °FPassing clouds.6 mph47%30.14 "Hg15 mi
12:00 AM28 °FPassing clouds.10 mph55%30.14 "Hg15 mi
11:00 PM
Wed, Apr 1
28 °FPassing clouds.10 mph59%30.13 "Hg15 mi
10:00 PM30 °FClear.10 mph51%30.13 "Hg15 mi
9:00 PM30 °FPassing clouds.9 mph51%30.14 "Hg15 mi
8:00 PM32 °FPassing clouds.13 mph44%30.14 "Hg30 mi
7:00 PM34 °FPassing clouds.17 mph38%30.13 "Hg30 mi
6:00 PM36 °FPassing clouds.15 mph30%30.12 "Hg30 mi
5:00 PM36 °FPassing clouds.16 mph32%30.12 "Hg30 mi
4:00 PM34 °FPassing clouds.17 mph32%30.12 "Hg30 mi
3:00 PM34 °FPassing clouds.15 mph32%30.12 "Hg30 mi
2:00 PM32 °FPassing clouds.10 mph34%30.12 "Hg30 mi
1:00 PM30 °FScattered clouds.10 mph31%30.13 "Hg30 mi
12:00 PM30 °FScattered clouds.8 mph31%30.14 "Hg30 mi
11:00 AM27 °FScattered clouds.7 mph33%30.14 "Hg30 mi
10:00 AM25 °FPartly sunny.5 mph36%30.13 "Hg30 mi
9:00 AM25 °FPartly sunny.9 mph36%30.11 "Hg30 mi
8:00 AM23 °FScattered clouds.7 mph42%30.10 "Hg30 mi
7:00 AM21 °FPassing clouds.7 mph42%30.06 "Hg30 mi
6:00 AM21 °FPassing clouds.7 mph45%30.02 "Hg15 mi
5:00 AM21 °FClear.6 mph45%29.99 "Hg15 mi
4:00 AM23 °FClear.7 mph42%29.96 "Hg15 mi
3:00 AM23 °FClear.7 mph50%29.95 "Hg15 mi
2:00 AM25 °FClear.6 mph46%29.93 "Hg15 mi
Weather by CustomWeather, © 2015

See weather overviewHow to use our weather pages